Погода в Крюках

Россия / Псковская область     57°10′35″N   28°28′42″E
темп.,
°C
ветер,
м/с
пор.,
м/с
влажн.,
%
обл.,
%
осадки,
мм/ч
давл.,
гПа
погр.,
м
7 мая, пт
пт700:00+4юз61287100 0.1 1001823
03:00+4юз6128388 0.1 1002993
06:00+3юз5138613 0.0 1003755
09:00+7юз6107173 0.0 10031051
12:00+8юз5967100 0.1 10051482
15:00+11зюз5948100 0.1 10052169
18:00+11юз4650100 0.0 10041357
21:00+7ю2465100 0.0 100459
8 мая, сб
сб800:00+5ююв3591100 0.3 1004158
03:00+4ююз229489 0.4 100448
06:00+2зсз289510 0.0 1005300
09:00+6з566464 0.0 10061191
12:00+6зсз566697 0.1 10081210
15:00+6зсз576894 0.2 10091353
18:00+8сз576153 0.1 10101430
21:00+3зсз22874 0.4 101323
9 мая, вс
вс900:00+2зсз34915 0.0 101475
03:000зсз26900 0.0 1016101
06:000з24864 0.0 101896
09:00+7зюз34545 0.0 1019509
12:00+11юз454638 0.0 10201519
15:00+13юз46405 0.0 10201933
18:00+13юз464862 0.0 10201976
21:00+9ююз376490 0.0 1021158
10 мая, пн
пн1000:00+8ю41263100 0.0 1021365
03:00+9ююз51465100 0.0 1022583
06:00+8ю51271100 0.0 1023461
09:00+13ююз5106233 0.0 1024531
12:00+17ююз68496 0.0 10241090
15:00+20ююз574623 0.0 10241489
18:00+19ю57555 0.0 10241305
21:00+13ю367972 0.0 102597
11 мая, вт
вт1100:00+10ю3118394 0.0 1026264
03:00+9ююв41284100 0.0 1026276
06:00+8ююв412857 0.0 1027325
09:00+14ю5963100 0.0 1027514
12:00+18ююв574651 0.0 10261141
15:00+20ююв574214 0.0 10251393
18:00+20ююв47505 0.0 10241160
21:00+14ююв387513 0.0 1024133